Showing default

SHIYAN 21 (SY-21), 54752

Orbit data source: Space-Track

SHIYAN 21 (SY-21), 54752 is a payload satellite owned by CAST (CN) in LEO that was launched on Fri, 16 Dec 2022 UTC via a CHANG ZHENG 11 launch vehicle from the Xichang Space Center, China (XSC). Payload-class satellites include a variety of spacecraft equipped with specific instruments for various scientific and technological missions. These include communications satellites like Starlink; space stations such as the ISS; scientific satellites like the Hubble; Earth observation satellites from companies like Planet Labs, Umbra, and HawkEye 360; GPS; miniature CubeSats for education and research; and military/defense satellites.

Loading next visibility...
Identifier
54752, 2022-172A
Orbit
LEO
Country
Flag of CNCN / PRC
Related business
Manufacturer
CAST
Mission
Operational Civil Technology
Bus & Motor
SJ2013, Unknown motor
Mass
100 kg wet, 100 kg dry
Launch date (UTC)
2022-12-16 (4 years ago)
Launch vehicle
CHANG ZHENG 11
Launch site
Xichang Space Center, China (XSC)
Object type
Payload
Rocket body
Debris
Shape & HBR
Box + 2 Pan, 1.0 m
Radar Cross Section
0.833 m², Large (>1 m²)

Expand to show TLE details & history
Last TLE update: 2 weeks ago

TLE from 2 weeks ago
0 SHIYAN 21 (SY-21)
1 54752U 22172A   26160.78821127  .00006507  00000-0  22853-3 0  9999
2 54752  35.9811 117.9945 0020536 188.0233 172.0175 15.28692057194551
Epoch: 2026-06-09T18:55Z
TLE epoch observation values (Epoch: 2026-06-09T18:55:01.453Z)
Latitude
Longitude
-63.91724°
Altitude
492.673 km
Speed
7.613 km/s
True Right ascension
07h 51m 58s
True Declination
0° 00' 00"
Sunlit
Object was in daylight at epoch
Visualization orbit readout
Latitude
Unknown
Longitude
Unknown
Altitude
Unknown
Speed
Unknown
Apparent Right ascension
Unknown
Apparent Declination
Unknown
Sunlit
N/A
Visualization observer readout
Local Sidereal Time
21:24:12
Azimuth
Unknown
Elevation
Unknown
Doppler factor
Unknown
Orbital elements
Apogee altitude
496.913 km
Perigee altitude
468.734 km
Semi-major axis
6,860.96 km
Eccentricity
0.00205
Inclination
35.9811°
RAAN
117.9945°
Arg. of periapsis
188.0233°
True anomaly
172.0501°
Mean anomaly
172.0175°
Eccentric anomaly
172.03381°
Mean motion
3.81914 °/min
Orbital period
94.26 mins
BSTAR
0.00022853
Loading maneuver chart data...
Computing Atmospheric mass density...
Loading historical data...
Loading historical data...
Loading historical data...
Loading historical data...
Loading historical data...
Loading historical data...
Loading historical data...
Other satellites on launch #172 in the year 2022 (2022-12-16 UTC)

Documentation

Showing up to 5 results
|